Regional Weather Roundup
Issued by NWS Upton, NY

Current Version | Previous Version | Text Only | Print | Product List | Glossary On
Versions: 1 2 3 4 5 6 7 8 9 10 11 12 13 14 15 16 17 18 19 20 21 22 23 24 25 26 27 28 29 30 31 32 33 34 35 36 37 38 39 40 41 42 43 44 45 46 47 48 49 50
000
ASUS41 KOKX 230108
RWROKX

REGIONAL WEATHER ROUNDUP
NATIONAL WEATHER SERVICE NEW YORK NY
800 PM EST WED NOV 22 2017

NOTE: "FAIR" INDICATES FEW OR NO CLOUDS BELOW 12,000 FEET WITH NO
SIGNIFICANT WEATHER AND/OR OBSTRUCTIONS TO VISIBILITY.

NYZ071-072-176-178-NJZ106-104-230200-
NEW YORK CITY METRO AREA

CITY           SKY/WX    TMP DP  RH WIND       PRES   REMARKS
Central Park   MOCLDY    40  24  53 NW8G22    30.07R WCI  34
Bronx Bot Gard   N/A     39  23  52 W14       30.02S WCI  31
Bronx Lehman C   N/A     39  32  75 NW16        N/A  WCI  30
LaGuardia APRT CLEAR     42  27  55 NW24G30   30.04R
Queens College   N/A     39  32  75 NW15        N/A  WCI  31
Kennedy INTL   PTCLDY    40  26  57 NW21G29   30.05R WCI  30
Breezy Point     N/A     39 N/A N/A N15G25      N/A  WCI  31
Brooklyn Coll    N/A     39  32  75 NW18G35     N/A  WCI  30
Staten Island    N/A     39  32  75 NW9         N/A  WCI  33
Newark/Liberty MOCLDY    40  23  50 NW22G29   30.07R WCI  30
Teterboro      MOCLDY    39  23  52 NW15G25   30.04R WCI  31
$$

NYZ177-179-078>081-230200-
LONG ISLAND NEW YORK

CITY           SKY/WX    TMP DP  RH WIND       PRES   REMARKS
Jones Beach      N/A     41 N/A N/A NW20G30     N/A
Wantagh          N/A     41  32  70 NW8         N/A
Matinecock PT    N/A     43 N/A N/A NW23        N/A
Farmingdale    CLEAR     40  26  57 NW12G22   30.00R WCI  33
MacArthur/ISP  MOCLDY    43  30  60 NW16G22   29.98R
Shirley        CLOUDY    42  31  64 NW12G23   29.98R
Mt Sinai Harb    N/A    N/A N/A N/A N15G24      N/A
Westhampton    CLEAR     41  27  57 NW20G35   29.98R
East Hampton   FAIR      40  28  64 NW14G24   29.94S WCI  32
Southold         N/A     41  32  70 NW17        N/A
Montauk          N/A     44  31  60 NW20G32   29.94R
$$

NYZ052-065-067-230200-
HUDSON VALLEY

CITY           SKY/WX    TMP DP  RH WIND       PRES   REMARKS
White Plains   CLEAR     38  24  57 NW17G23   29.99R WCI  28
Larchmont Harb   N/A     39 N/A N/A W14G22      N/A  WCI  31
Croton On Huds   N/A     39 N/A N/A NW17G24     N/A  WCI  30
Somers           N/A     36  32  87 NW8G22      N/A  WCI  29
Brewster         N/A     36  32  87 NW9         N/A  WCI  29
Newburgh       MOCLDY    37  25  60 NW14G23   30.04R WCI  29
Montgomery     MOCLDY    37  23  56 NW12      30.03S WCI  29
Suffern          N/A     36  32  87 NW12        N/A  WCI  27
Poughkeepsie   CLEAR     38  22  52 NW10      30.03R WCI  31
Albany         MOCLDY    37  21  52 NW21G28   30.05R WCI  26
$$

NJZ001-105-106-008-010-013-015-019>022-104-230200-
NEW JERSEY

CITY           SKY/WX    TMP DP  RH WIND       PRES   REMARKS
Newark/Liberty MOCLDY    40  23  50 NW22G29   30.07R WCI  30
Teterboro      MOCLDY    39  23  52 NW15G25   30.04R WCI  31
Caldwell       FLURRIES  38  23  55 NW13G20   30.07R WCI  30
Somerville     CLOUDY    39  25  57 N10G20    30.06R WCI  32
Linden         CLOUDY    40  24  52 NW14G21   30.06R WCI  32
Perth Amboy      N/A     39 N/A N/A NW18G24     N/A  WCI  30
Sussex         CLOUDY    35  22  58 VRB6      30.07S WCI  30
Andover          N/A     35  23  61 N12G22    30.08R WCI  27
Trenton        PTCLDY    39  23  52 NW18G29   30.07R WCI  30
Millville      CLOUDY    43  29  57 NW7       30.09R
Atlantic City  CLEAR     41  30  65 NW13      30.05S
Wrightstown    CLOUDY    40  26  57 N15G22    30.06R WCI  32
Toms River     MOCLDY    41  26  55 NW17G26   30.07R
Belmar         CLEAR     40  25  55 NW17      30.06  WCI  31
$$

PAZ047>061-062-071-230200-
EASTERN PENNSYLVANIA

CITY           SKY/WX    TMP DP  RH WIND       PRES   REMARKS
Philadelphia   MOCLDY    42  24  49 NW10G21   30.10R
Allentown      CLOUDY    38  23  55 NW9       30.09S WCI  31
Scranton       CLOUDY    33  21  61 N12G23    30.12R WCI  24
$$

CTZ002-004>006-009-010-012-RIZ004-006-007-MAZ004-011-015-230200-
SOUTHERN NEW ENGLAND
 IN CT

CITY           SKY/WX    TMP DP  RH WIND       PRES   REMARKS
Bradley INTL   MOCLDY    39  28  64 NW12      29.97R WCI  32
Hartford       MOCLDY    40  28  62 NW13      29.97R WCI  32
Danbury        MOCLDY    38  25  59 N8        30.00R WCI  32
Wtrbury/Oxford CLOUDY    37  25  61 NW13G37   29.97R WCI  29
Norwalk Harbor   N/A     39 N/A N/A W15G22      N/A  WCI  31
Bridgeport     PTCLDY    41  27  57 NW12      29.99R
Meriden        PTCLDY    38  26  62 N12G21    29.97R WCI  30
New Haven      CLEAR     41  26  55 NW10G17   29.97R
Chester        FAIR      37  27  65 NW12G21   29.93S WCI  30
Groton         CLEAR     41  28  60 NW16G26   29.92R
Wilimantic     PTCLDY    40  29  64 NW8G18    29.93R WCI  34

 IN RI

CITY           SKY/WX    TMP DP  RH WIND       PRES   REMARKS
Providence     PTCLDY    41  32  70 NW13G24   29.90R
Block Island   CLOUDY    43  34  70 NW15G25   29.91R
Westerly       PTCLDY    42  33  70 NW14G23   29.91R
 IN MA

CITY           SKY/WX    TMP DP  RH WIND       PRES   REMARKS
Boston         PTCLDY    40  31  70 NW21G33   29.87R WCI  30
Worcester      CLOUDY    36  27  69 NW17G28   29.88R WCI  26
Westfield      CLOUDY    39  28  64 NW14G26   29.95S WCI  31
Provincetown   CLOUDY    43  39  86 NW24G36   29.82
Nantucket      CLOUDY    45  44  97 NW22G32   29.80R
$$

ANZ330-335-338-340-345-350-353-355-230200-
COASTAL MARINE OBSERVATIONS


STATION/POSITION TIME  SKY/WX   TEMP    WIND        PRES    VSBY  WAVE
                                AIR SEA DIR/SP/G                  HT/PER
                 (UTC)          (F)     (DEG/KT/KT) (MB)    (MI)  (FT/S)
NY HARB ENTRANCE 2350            45 57  320/ 21/ 27 1014.8          5/ 5
20 S FIRE ISLAND 2350            47 57  320/ 23/ 31 1014.6          6/ 6
GREAT SOUTH BAY  0015            43 45  310/ 16/ 19   N/A
HUDSON CANYON    2350            52 59  340/ 25/ 29 1012.7          9/ 7
KINGS POINT      0042            42 51  360/ 18/ 23 1017.6
EXECUTION ROCKS  0015            43     310/ 19/ 27   N/A
WESTERN LI SOUND 2349            43     300/ 19/ 29   N/A           2/ 3
CENTRAL LI SOUND NOT AVBL
ROBBINS REEF     0036            40     310/ 18/ 24 1017.9
$$


>>>>>>>>>>>>>>>>>>>>>>>>>>>> KEY <<<<<<<<<<<<<<<<<<<<<<<<<<<
>                                                          <
>     SKY/WX - Sky Condition/Present Weather               <
>     TMP    - Temperature in Fahrenheit                   <
>     DP     - Dew Point in Fahrenheit                     <
>     RH     - Relative Humidity in Percent                <
>     WIND   - Direction (from) and Speed in MPH           <
>     PRES   - Mean Sea Level Pressure (inches of Hg)      <
>     WCI    - Wind Chill Index                            <
>     VSB    - VISIBILITY IN MILES                         <
>     HX     - HEAT INDEX                                  <
>     TC     - TEMPERATURE IN CELSIUS                      <
>     VRB    - VARIABLE WIND DIRECTION                     <
>                                                          <
>>>>>>>>>>>>>>>>>>>>>>>>>>>> KEY <<<<<<<<<<<<<<<<<<<<<<<<<<<



USA.gov is the U.S. government's official web portal to all federal, state and local government web resources and services.